EJU25M LOWW-EDDM

Flight info

Callsign EJU25M
Flight time 0h 38m
Altitude 30000
Route SOVIL DCT SITNI DCT BAGSI DCT MATIG DCT AMADI Q113 NAPSA NAPSA1B
Aircraft A320/M-SDE3FGHIRWY/LB1

Departure

Time 2026-05-06 18:44
Airport Vienna International Airport (LOWW)

Arrival

Time 2026-05-06 19:22
Airport Munich Airport (EDDM)
Time Latitude Longitude Altitude Speed Heading
2026-05-06 18:14 48.11940 16.55797 601 ft 0 kts 295°
2026-05-06 18:32 48.11938 16.55802 601 ft 2 kts 295°
2026-05-06 18:32 48.11931 16.55824 601 ft 2 kts 296°
2026-05-06 18:32 48.11924 16.55847 602 ft 2 kts 295°
2026-05-06 18:32 48.11918 16.55869 602 ft 2 kts 292°
2026-05-06 18:33 48.11912 16.55892 602 ft 2 kts 279°
2026-05-06 18:33 48.11914 16.55913 602 ft 1 kts 203°
2026-05-06 18:33 48.11916 16.55914 601 ft 0 kts 203°
2026-05-06 18:36 48.11904 16.55906 602 ft 6 kts 204°
2026-05-06 18:36 48.11847 16.55866 609 ft 12 kts 206°
2026-05-06 18:37 48.11767 16.55855 617 ft 12 kts 135°
2026-05-06 18:37 48.11715 16.56007 622 ft 20 kts 116°
2026-05-06 18:37 48.11649 16.56209 614 ft 23 kts 116°
2026-05-06 18:37 48.11579 16.56427 622 ft 24 kts 115°
2026-05-06 18:38 48.11505 16.56651 617 ft 23 kts 115°
2026-05-06 18:38 48.11432 16.56871 617 ft 24 kts 117°
2026-05-06 18:38 48.11363 16.57089 624 ft 21 kts 116°
2026-05-06 18:38 48.11310 16.57248 623 ft 9 kts 116°
2026-05-06 18:39 48.11313 16.57325 616 ft 6 kts 54°
2026-05-06 18:39 48.11345 16.57354 625 ft 6 kts 25°
2026-05-06 18:39 48.11403 16.57395 622 ft 16 kts 26°
2026-05-06 18:40 48.11661 16.57408 618 ft 16 kts 344°
2026-05-06 18:40 48.11772 16.57364 604 ft 17 kts
2026-05-06 18:40 48.11828 16.57492 601 ft 15 kts 72°
2026-05-06 18:40 48.11850 16.57622 603 ft 10 kts 75°
2026-05-06 18:41 48.11854 16.57646 603 ft 0 kts 74°
2026-05-06 18:41 48.11861 16.57691 604 ft 11 kts 82°
2026-05-06 18:41 48.11827 16.57847 602 ft 21 kts 134°
2026-05-06 18:42 48.11763 16.57908 603 ft 0 kts 164°
2026-05-06 18:43 48.11723 16.57926 614 ft 30 kts 163°
2026-05-06 18:43 48.11203 16.58144 613 ft 120 kts 164°
2026-05-06 18:43 48.10220 16.58559 989 ft 158 kts 166°
2026-05-06 18:44 48.09149 16.58993 1929 ft 161 kts 169°
2026-05-06 18:44 48.08048 16.59446 2553 ft 172 kts 171°
2026-05-06 18:44 48.06840 16.59933 3044 ft 184 kts 174°
2026-05-06 18:44 48.05541 16.59799 3421 ft 200 kts 205°
2026-05-06 18:45 48.04440 16.58358 3884 ft 227 kts 231°
2026-05-06 18:45 48.03501 16.56394 4747 ft 236 kts 232°
2026-05-06 18:45 48.02543 16.54375 5703 ft 241 kts 233°
2026-05-06 18:45 48.01579 16.52345 6617 ft 246 kts 233°
2026-05-06 18:46 48.00576 16.50239 7524 ft 251 kts 233°
2026-05-06 18:46 47.99557 16.48109 8436 ft 256 kts 233°
2026-05-06 18:46 47.98540 16.45894 9334 ft 262 kts 240°
2026-05-06 18:46 47.97947 16.43283 10183 ft 272 kts 259°
2026-05-06 18:47 47.97939 16.40391 10815 ft 290 kts 269°
2026-05-06 18:47 47.98058 16.37263 11151 ft 314 kts 270°
2026-05-06 18:47 47.98195 16.33896 11476 ft 335 kts 270°
2026-05-06 18:47 47.98342 16.30368 12079 ft 346 kts 271°
2026-05-06 18:48 47.98492 16.26740 12719 ft 355 kts 271°
2026-05-06 18:48 47.98642 16.23032 13489 ft 360 kts 271°
2026-05-06 18:48 47.98793 16.19281 14181 ft 364 kts 270°
2026-05-06 18:48 47.98943 16.15492 14883 ft 368 kts 270°
2026-05-06 18:49 47.99100 16.11667 15610 ft 371 kts 271°
2026-05-06 18:49 47.99332 16.07817 16337 ft 374 kts 272°
2026-05-06 18:49 47.99628 16.03951 17047 ft 377 kts 273°
2026-05-06 18:49 47.99954 16.00058 17743 ft 379 kts 273°
2026-05-06 18:50 48.00286 15.96135 18357 ft 382 kts 273°
2026-05-06 18:50 48.00611 15.92178 18928 ft 385 kts 273°
2026-05-06 18:50 48.00928 15.88196 19548 ft 387 kts 272°
2026-05-06 18:50 48.01236 15.84199 20140 ft 389 kts 272°
2026-05-06 18:51 48.01539 15.80165 20719 ft 392 kts 272°
2026-05-06 18:51 48.01838 15.76112 21281 ft 395 kts 272°
2026-05-06 18:51 48.02138 15.72014 21833 ft 398 kts 272°
2026-05-06 18:51 48.02438 15.67897 22371 ft 401 kts 271°
2026-05-06 18:52 48.02740 15.63748 22896 ft 403 kts 271°
2026-05-06 18:52 48.03046 15.59558 23371 ft 407 kts 271°
2026-05-06 18:52 48.03353 15.55339 23806 ft 410 kts 272°
2026-05-06 18:52 48.03661 15.51098 24252 ft 411 kts 271°
2026-05-06 18:53 48.03970 15.46842 24712 ft 413 kts 272°
2026-05-06 18:53 48.04278 15.42571 25208 ft 414 kts 272°
2026-05-06 18:53 48.04584 15.38296 25661 ft 415 kts 271°
2026-05-06 18:53 48.04812 15.33993 26069 ft 416 kts 269°
2026-05-06 18:54 48.04924 15.29700 26715 ft 409 kts 267°
2026-05-06 18:54 48.04967 15.25469 27386 ft 406 kts 266°
2026-05-06 18:54 48.04984 15.21252 27885 ft 406 kts 266°
2026-05-06 18:54 48.05002 15.17025 28324 ft 408 kts 266°
2026-05-06 18:55 48.05033 15.12774 28720 ft 410 kts 266°
2026-05-06 18:55 48.05079 15.08507 29115 ft 412 kts 267°
2026-05-06 18:55 48.05135 15.04232 29584 ft 412 kts 266°
2026-05-06 18:55 48.05198 14.99957 29719 ft 410 kts 266°
2026-05-06 18:56 48.05264 14.95702 29720 ft 409 kts 266°
2026-05-06 18:56 48.05379 14.87205 29720 ft 408 kts 266°
2026-05-06 18:57 48.05475 14.78731 29709 ft 408 kts 266°
2026-05-06 18:57 48.05547 14.70261 29711 ft 407 kts 265°
2026-05-06 18:58 48.05603 14.61798 29712 ft 407 kts 265°
2026-05-06 18:58 48.05659 14.53351 29670 ft 405 kts 265°
2026-05-06 18:58 48.05688 14.49153 29087 ft 402 kts 265°
2026-05-06 18:59 48.05714 14.44977 28808 ft 402 kts 265°
2026-05-06 18:59 48.05734 14.40790 28528 ft 403 kts 265°
2026-05-06 18:59 48.05749 14.36596 28262 ft 404 kts 265°
2026-05-06 18:59 48.05764 14.32384 27994 ft 406 kts 265°
2026-05-06 19:00 48.05783 14.28157 27721 ft 407 kts 265°
2026-05-06 19:00 48.05804 14.23919 27450 ft 409 kts 265°
2026-05-06 19:00 48.05823 14.19664 27207 ft 410 kts 265°
2026-05-06 19:00 48.05834 14.16839 27053 ft 411 kts 265°
2026-05-06 19:01 48.05854 14.11125 26726 ft 411 kts 265°
2026-05-06 19:01 48.05864 14.06853 26471 ft 412 kts 265°
2026-05-06 19:01 48.05871 14.02562 26173 ft 413 kts 265°
2026-05-06 19:01 48.05877 13.98256 25920 ft 415 kts 265°
2026-05-06 19:02 48.05882 13.93941 25690 ft 415 kts 265°
2026-05-06 19:02 48.05888 13.89677 25449 ft 403 kts 265°
2026-05-06 19:02 48.05896 13.85570 25202 ft 390 kts 265°
2026-05-06 19:02 48.05900 13.81545 24959 ft 385 kts 265°
2026-05-06 19:03 48.05900 13.77551 24722 ft 384 kts 265°
2026-05-06 19:03 48.05896 13.73569 24483 ft 383 kts 265°
2026-05-06 19:03 48.05887 13.69602 24283 ft 381 kts 265°
2026-05-06 19:03 48.05880 13.65643 24047 ft 380 kts 265°
2026-05-06 19:04 48.05875 13.63034 23892 ft 380 kts 265°
2026-05-06 19:04 48.05913 13.59083 23658 ft 382 kts 271°
2026-05-06 19:04 48.06515 13.55186 23450 ft 388 kts 282°
2026-05-06 19:04 48.07323 13.51344 23196 ft 387 kts 282°
2026-05-06 19:05 48.08140 13.47509 22916 ft 386 kts 282°
2026-05-06 19:05 48.08958 13.43693 22645 ft 385 kts 282°
2026-05-06 19:05 48.09773 13.39895 22189 ft 381 kts 282°
2026-05-06 19:05 48.10576 13.36139 21583 ft 378 kts 282°
2026-05-06 19:06 48.11367 13.32412 20998 ft 375 kts 282°
2026-05-06 19:06 48.12147 13.28705 20401 ft 373 kts 283°
2026-05-06 19:06 48.12925 13.25010 19801 ft 370 kts 283°
2026-05-06 19:06 48.13691 13.21382 18927 ft 364 kts 283°
2026-05-06 19:07 48.14452 13.17753 18275 ft 365 kts 283°
2026-05-06 19:07 48.15208 13.14140 17746 ft 362 kts 283°
2026-05-06 19:07 48.15955 13.10560 17211 ft 359 kts 283°
2026-05-06 19:07 48.16698 13.07009 16691 ft 356 kts 283°
2026-05-06 19:08 48.17430 13.03512 16201 ft 352 kts 283°
2026-05-06 19:08 48.18156 13.00022 15713 ft 349 kts 283°
2026-05-06 19:08 48.18870 12.96564 15240 ft 346 kts 283°
2026-05-06 19:08 48.19581 12.93130 14768 ft 343 kts 283°
2026-05-06 19:09 48.20285 12.89725 14299 ft 342 kts 283°
2026-05-06 19:09 48.20987 12.86328 13894 ft 337 kts 283°
2026-05-06 19:09 48.21668 12.83031 13774 ft 325 kts 283°
2026-05-06 19:09 48.22327 12.79857 13650 ft 313 kts 283°
2026-05-06 19:10 48.22962 12.76790 13518 ft 303 kts 283°
2026-05-06 19:10 48.23573 12.73815 13329 ft 295 kts 283°
2026-05-06 19:10 48.24170 12.70886 12942 ft 294 kts 283°
2026-05-06 19:10 48.24762 12.67970 12678 ft 293 kts 283°
2026-05-06 19:11 48.25354 12.65059 12341 ft 291 kts 283°
2026-05-06 19:11 48.25946 12.62152 11959 ft 291 kts 283°
2026-05-06 19:11 48.26533 12.59249 11593 ft 291 kts 283°
2026-05-06 19:11 48.27121 12.56343 11216 ft 290 kts 283°
2026-05-06 19:12 48.27708 12.53459 10844 ft 289 kts 283°
2026-05-06 19:12 48.28292 12.50583 10507 ft 286 kts 283°
2026-05-06 19:12 48.28873 12.47736 10147 ft 284 kts 283°
2026-05-06 19:12 48.29446 12.44925 9785 ft 280 kts 283°
2026-05-06 19:13 48.30016 12.42147 9396 ft 277 kts 283°
2026-05-06 19:13 48.30578 12.39393 9003 ft 274 kts 283°
2026-05-06 19:13 48.31134 12.36672 8613 ft 271 kts 284°
2026-05-06 19:13 48.31911 12.34096 8174 ft 270 kts 294°
2026-05-06 19:14 48.32802 12.31621 7665 ft 268 kts 295°
2026-05-06 19:14 48.33688 12.29171 7189 ft 265 kts 295°
2026-05-06 19:14 48.34553 12.26755 6707 ft 261 kts 295°
2026-05-06 19:14 48.35402 12.24364 6254 ft 257 kts 295°
2026-05-06 19:15 48.36233 12.22010 5779 ft 252 kts 295°
2026-05-06 19:15 48.36995 12.19664 5298 ft 247 kts 285°
2026-05-06 19:15 48.37212 12.17215 5137 ft 228 kts 267°
2026-05-06 19:15 48.37051 12.14939 5046 ft 210 kts 265°
2026-05-06 19:16 48.36901 12.12869 5008 ft 188 kts 264°
2026-05-06 19:16 48.36767 12.11035 5001 ft 166 kts 265°
2026-05-06 19:16 48.36647 12.09402 5000 ft 150 kts 265°
2026-05-06 19:16 48.36535 12.07873 4983 ft 146 kts 265°
2026-05-06 19:17 48.36424 12.06373 4872 ft 143 kts 266°
2026-05-06 19:17 48.36314 12.04888 4715 ft 143 kts 266°
2026-05-06 19:17 48.36205 12.03404 4542 ft 144 kts 266°
2026-05-06 19:17 48.36093 12.01903 4342 ft 145 kts 266°
2026-05-06 19:18 48.35980 12.00381 4155 ft 147 kts 265°
2026-05-06 19:18 48.35866 11.98860 3952 ft 145 kts 265°
2026-05-06 19:18 48.35754 11.97364 3758 ft 142 kts 265°
2026-05-06 19:18 48.35645 11.95898 3571 ft 140 kts 265°
2026-05-06 19:19 48.35536 11.94445 3382 ft 139 kts 265°
2026-05-06 19:19 48.35428 11.93008 3219 ft 138 kts 265°
2026-05-06 19:19 48.35320 11.91577 3010 ft 137 kts 265°
2026-05-06 19:19 48.35214 11.90169 2827 ft 131 kts 265°
2026-05-06 19:20 48.35114 11.88841 2672 ft 126 kts 264°
2026-05-06 19:20 48.35015 11.87537 2482 ft 125 kts 264°
2026-05-06 19:20 48.34916 11.86231 2287 ft 125 kts 263°
2026-05-06 19:20 48.34818 11.84935 2106 ft 125 kts 263°
2026-05-06 19:21 48.34720 11.83638 1938 ft 125 kts 263°
2026-05-06 19:21 48.34621 11.82338 1777 ft 125 kts 264°
2026-05-06 19:21 48.34523 11.81052 1621 ft 122 kts 263°
2026-05-06 19:21 48.34427 11.79798 1473 ft 115 kts 263°
2026-05-06 19:22 48.34353 11.78833 1464 ft 68 kts 263°
2026-05-06 19:22 48.34315 11.78352 1469 ft 30 kts 264°
2026-05-06 19:22 48.34304 11.78082 1473 ft 27 kts 277°
2026-05-06 19:22 48.34378 11.77785 1469 ft 28 kts 295°
2026-05-06 19:23 48.34452 11.77532 1457 ft 25 kts 292°
2026-05-06 19:23 48.34574 11.77431 1463 ft 19 kts 358°
2026-05-06 19:23 48.34639 11.77453 1460 ft 5 kts 92°
2026-05-06 19:23 48.34636 11.77556 1466 ft 13 kts 88°
2026-05-06 19:24 48.34646 11.77683 1464 ft 11 kts 83°
2026-05-06 19:24 48.34654 11.77794 1464 ft 10 kts 84°
2026-05-06 19:24 48.34676 11.77887 1462 ft 9 kts 39°
2026-05-06 19:24 48.34756 11.77882 1462 ft 20 kts 351°
2026-05-06 19:25 48.34919 11.77854 1461 ft 24 kts 353°
2026-05-06 19:25 48.35086 11.77825 1462 ft 24 kts 353°
2026-05-06 19:25 48.35261 11.77793 1464 ft 25 kts 354°
2026-05-06 19:25 48.35378 11.77776 1466 ft 6 kts 354°
2026-05-06 19:26 48.35416 11.77766 1463 ft 5 kts 337°
2026-05-06 19:26 48.35424 11.77726 1466 ft 5 kts 276°
2026-05-06 19:26 48.35421 11.77665 1466 ft 5 kts 264°
2026-05-06 19:26 48.35421 11.77663 1466 ft 0 kts 264°